Satellite-Ground Cal/Val Region Overpasses Predictions

Prediction of Satellite NPP Overpassing Cal/Val Region: PacNW

Region Location: (Latitude: 10.00, Longitude: 139.50) to (Latitude: 22.70, Longitude: 165.60).

Table of predicted overpasses for the next 14.0 days since TLE Epoch: 4/13/2019
Interval Starting Time Starting Location Ending Time Ending Location
1 04/14/2019 03:42:20 ( 10.06, 144.08) 04/14/2019 03:45:55 ( 22.68, 141.07)
2 04/14/2019 14:33:58 ( 18.22, 165.60) 04/14/2019 14:36:17 ( 10.06, 163.69)
3 04/14/2019 16:14:12 ( 22.67, 141.32) 04/14/2019 16:16:19 ( 15.22, 139.51)
4 04/15/2019 03:23:18 ( 10.04, 148.84) 04/15/2019 03:26:53 ( 22.66, 145.83)
5 04/15/2019 15:55:11 ( 22.69, 146.08) 04/15/2019 15:58:47 ( 10.01, 143.06)
6 04/16/2019 03:04:17 ( 10.02, 153.59) 04/16/2019 03:07:52 ( 22.64, 150.59)
7 04/16/2019 15:36:10 ( 22.65, 150.82) 04/16/2019 15:39:45 ( 10.03, 147.82)
8 04/17/2019 02:45:15 ( 10.00, 158.35) 04/17/2019 02:48:51 ( 22.68, 155.34)
9 04/17/2019 15:17:09 ( 22.67, 155.58) 04/17/2019 15:20:44 ( 10.05, 152.58)
10 04/18/2019 02:26:15 ( 10.04, 163.10) 04/18/2019 02:29:50 ( 22.67, 160.10)
11 04/18/2019 14:58:07 ( 22.69, 160.34) 04/18/2019 15:01:43 ( 10.01, 157.32)
12 04/19/2019 02:09:57 ( 19.66, 165.59) 04/19/2019 02:10:48 ( 22.65, 164.85)
13 04/19/2019 03:48:43 ( 10.03, 142.48) 04/19/2019 03:52:16 ( 22.54, 139.51)
14 04/19/2019 14:39:07 ( 22.65, 165.09) 04/19/2019 14:42:42 ( 10.03, 162.08)
15 04/19/2019 16:20:37 ( 22.64, 139.71) 04/19/2019 16:20:51 ( 21.82, 139.51)
16 04/20/2019 03:29:42 ( 10.01, 147.24) 04/20/2019 03:33:18 ( 22.70, 144.22)
17 04/20/2019 16:01:36 ( 22.66, 144.47) 04/20/2019 16:05:11 ( 10.04, 141.47)
18 04/21/2019 03:10:41 ( 10.06, 151.99) 04/21/2019 03:14:16 ( 22.68, 148.98)
19 04/21/2019 15:42:34 ( 22.68, 149.23) 04/21/2019 15:46:09 ( 10.06, 146.23)
20 04/22/2019 02:51:40 ( 10.04, 156.75) 04/22/2019 02:55:15 ( 22.66, 153.74)
21 04/22/2019 15:23:33 ( 22.69, 153.99) 04/22/2019 15:27:09 ( 10.01, 150.97)
22 04/23/2019 02:32:38 ( 10.03, 161.50) 04/23/2019 02:36:13 ( 22.65, 158.50)
23 04/23/2019 15:04:32 ( 22.65, 158.73) 04/23/2019 15:08:07 ( 10.03, 155.73)
24 04/24/2019 02:14:26 ( 12.89, 165.60) 04/24/2019 02:17:13 ( 22.69, 163.24)
25 04/24/2019 03:55:07 ( 10.01, 140.89) 04/24/2019 03:56:48 ( 15.95, 139.51)
26 04/24/2019 14:45:31 ( 22.66, 163.49) 04/24/2019 14:49:06 ( 10.05, 160.49)
27 04/25/2019 03:36:06 ( 10.06, 145.63) 04/25/2019 03:39:41 ( 22.68, 142.63)
28 04/25/2019 14:29:38 ( 11.59, 165.60) 04/25/2019 14:30:05 ( 10.00, 165.23)
29 04/25/2019 16:07:59 ( 22.68, 142.87) 04/25/2019 16:11:34 ( 10.06, 139.87)
30 04/26/2019 03:17:05 ( 10.04, 150.39) 04/26/2019 03:20:40 ( 22.67, 147.39)
31 04/26/2019 15:48:58 ( 22.69, 147.63) 04/26/2019 15:52:34 ( 10.01, 144.62)
32 04/27/2019 02:58:04 ( 10.03, 155.15) 04/27/2019 03:01:39 ( 22.66, 152.15)


NCC Satellite Cal/Val Overpasses Prediction Service
